Free Trial

Definium Therapeutics (DFTX) Institutional Ownership

Definium Therapeutics logo
$22.40 +0.65 (+2.99%)
As of 04:00 PM Eastern

Institutional Ownership Changes (13F Filings) for Definium Therapeutics (NASDAQ:DFTX)

Current
Institutional Ownership
Percentage
27.91%
Number of
Institutional Buyers
(last 12 months)
66
Total
Institutional Inflows
(last 12 months)
$41.36M
Number of
Institutional Sellers
(last 12 months)
38
Total
Institutional Outflows
(last 12 months)
$59.79M
Get DFTX Insider Trade Alerts

Want to know when executives and insiders are buying or selling Definium Therapeutics stock? Sign up for InsiderTrades.com's daily newsletter to get the latest insider transactions delivered to your inbox daily.

SMS is currently available in Australia, Belgium, Canada, France, Germany, Ireland, Italy, New Zealand, the Netherlands, Singapore, South Africa, Spain, Switzerland, the United Kingdom, and the United States. By entering your phone number and clicking the sign-up button, you agree to receive periodic text messages from MarketBeat at the phone number you submitted, including texts that may be sent using an automatic telephone dialing system. Message and data rates may apply. Message frequency will vary. Messages will consist of stock alerts, news stories, and partner advertisements/offers. Consent is not a condition of the purchase of any goods or services. Text HELP for help/customer support. Unsubscribe at any time by replying "STOP" to any text message that you receive from MarketBeat or by visiting our mailing preferences page. Read our full terms of service and privacy policy.
Skip Chart & View Institutional Buying and Selling Data

DFTX Institutional Buying and Selling by Quarter

Definium Therapeutics Major Shareholders & Ownership History

Reporting DateMajor Shareholder NameShares HeldMarket Value% of PortfolioQuarterly Change in SharesOwnership in CompanyDetails
1/21/2026Palumbo Wealth Management LLC39,002$522K0.1%+18.4%0.040%
1/21/2026 Flagship Harbor Advisors LLC8,721$117K0.0%N/A0.009%
1/7/2026 Bay Rivers Group16,001$214K0.1%+14.3%0.016%
1/1/2026JPMorgan Chase & Co.43,182$509K0.0%-10.9%0.044%
12/15/2025 FNY Investment Advisers LLC9,094$107K0.0%N/A0.009%
11/17/2025Caxton Associates LLP10,645$126K0.0%N/A0.011%
11/17/2025Sender Co & Partners Inc.25,906$305K0.0%N/A0.026%
11/17/2025Scientech Research LLC24,239$286K0.1%N/A0.025%
11/17/2025Mercer Global Advisors Inc. ADV21,931$259K0.0%+10.5%0.022%
11/17/2025Millennium Management LLC298,205$3.52M0.0%+62.6%0.303%
11/17/2025MIRAE ASSET GLOBAL ETFS HOLDINGS Ltd.35,397$417K0.0%-14.2%0.036%
11/17/2025Boxer Capital Management LLC163,500$1.93M0.6%N/A0.166%
11/17/2025Commodore Capital LP3,225,000$38.02M1.9%-35.5%3.274%
11/17/2025Bank of America Corp DE84,011$990K0.0%-29.5%0.085%
11/17/2025Caxton Corp27,011$318K1.4%-20.7%0.027%
11/17/2025Boothbay Fund Management LLC67,984$802K0.0%+278.0%0.069%
11/17/2025Ally Bridge Group NY LLC361,444$4.26M2.6%-50.2%0.367%
11/14/2025Schonfeld Strategic Advisors LLC35,510$419K0.0%N/A0.036%
11/14/2025Creative Planning11,909$140K0.0%-82.0%0.012%
11/14/2025Virtu Financial LLC32,184$379K0.0%N/A0.042%
11/14/2025Deep Track Capital LP1,500,000$17.69M0.5%-40.0%1.971%
11/14/2025Orbimed Advisors LLC367,824$4.34M0.1%N/A0.483%
11/14/2025UBS AM A Distinct Business Unit of UBS Asset Management Americas LLC117,239$1.38M0.0%+178.3%0.154%
11/14/2025Two Sigma Investments LP296,443$3.50M0.0%+424.9%0.390%
11/13/2025Marshall Wace LLP2,381,980$28.08M0.0%-30.4%3.130%
11/13/2025Rosalind Advisors Inc.750,000$8.84M3.1%+78.6%0.986%
11/13/2025UBS Group AG551,809$6.51M0.0%+7.3%0.725%
11/13/2025BNP Paribas Financial Markets15,320$181K0.0%+82.0%0.020%
11/13/2025Legal & General Group Plc55,019$649K0.0%-3.0%0.072%
11/13/2025Russell Investments Group Ltd.13,703$162K0.0%+259.0%0.018%
11/13/2025Rathbones Group PLC30,200$356K0.0%+7.1%0.040%
11/13/2025Dynamic Technology Lab Private Ltd10,352$122K0.0%-29.2%0.014%
11/13/2025Blair William & Co. IL31,905$376K0.0%+43.6%0.042%
11/12/2025Barclays PLC150,605$1.78M0.0%-14.1%0.198%
11/12/2025Royce & Associates LP81,024$955K0.0%N/A0.106%
11/12/2025Rafferty Asset Management LLC12,675$149K0.0%N/A0.017%
11/12/2025Intech Investment Management LLC27,134$320K0.0%-28.0%0.036%
11/12/2025Fox Run Management L.L.C.51,692$609K0.1%N/A0.068%
11/10/2025Palumbo Wealth Management LLC32,929$388K0.1%+37.0%0.043%
11/10/2025AXQ Capital LP15,585$184K0.1%N/A0.020%
11/10/2025 China Universal Asset Management Co. Ltd.13,337$157K0.0%-12.1%0.018%
11/10/2025BIT Capital GmbH2,245$26K0.0%N/A0.003%
11/10/2025Persistent Asset Partners Ltd24,282$286K0.2%-33.7%0.032%
11/7/2025CenterBook Partners LP159,421$1.88M0.1%N/A0.210%
11/7/2025GSA Capital Partners LLP55,489$654K0.1%N/A0.073%
11/7/2025Vanguard Group Inc.2,012,874$23.73M0.0%+11.0%2.645%
11/7/2025 Fifth Third Bancorp3,359$40K0.0%+5,593.2%0.004%
11/7/2025JPMorgan Chase & Co.43,182$509K0.0%-10.9%0.057%
11/6/2025Rhumbline Advisers112,118$1.32M0.0%-2.8%0.147%
11/6/2025 Profund Advisors LLC18,666$220K0.0%+36.2%0.025%
11/6/2025 ProShare Advisors LLC15,592$184K0.0%-14.6%0.020%
11/5/2025 AdvisorShares Investments LLC121,664$1.43M0.2%+11.0%0.160%
11/5/2025Moloney Securities Asset Management LLC23,511$277K0.0%-25.4%0.031%
11/4/2025 Money Concepts Capital Corp13,000$153K0.0%N/A0.017%
10/31/2025Stoneridge Investment Partners LLC11,563$136K0.1%+7.5%0.015%
10/23/2025 Nisa Investment Advisors LLC48,378$570K0.0%+1,332.1%0.064%
10/10/2025 Sound Income Strategies LLC3,681$46K0.0%N/A0.005%
10/9/2025Voya Investment Management LLC14,282$168K0.0%-32.8%0.019%
10/8/2025 Bay Rivers Group14,001$165K0.1%+20.5%0.018%
8/15/2025Tower Research Capital LLC TRC 8,856$57K0.0%-22.1%0.012%
8/15/2025Octagon Capital Advisors LP2,130,000$13.82M3.0%-29.4%2.799%
8/15/2025BNP Paribas Financial Markets8,417$55K0.0%+56.0%0.011%
8/15/2025Bank of America Corp DE119,214$774K0.0%+35.1%0.157%
8/15/2025AWM Investment Company Inc.1,215,662$7.89M0.9%+0.6%1.598%
8/14/2025Commodore Capital LP5,000,000$32.45M2.3%+10.5%6.571%
8/14/2025California State Teachers Retirement System57,288$372K0.0%-2.1%0.075%
8/14/2025Raymond James Financial Inc.17,029$111K0.0%-7.8%0.022%
8/14/2025MIRAE ASSET GLOBAL ETFS HOLDINGS Ltd.41,261$268K0.0%-5.3%0.054%
8/14/2025Diadema Partners LP158,536$1.03M0.3%N/A0.208%
8/14/2025Stempoint Capital LP90,852$590K0.2%N/A0.119%
8/14/2025Cerity Partners LLC49,650$322K0.0%+2.4%0.065%
8/13/2025Marshall Wace LLP3,421,224$22.20M0.0%+31.9%4.496%
8/13/2025Virtus Investment Advisers LLC12,881$84K0.0%-44.9%0.017%
8/13/2025Russell Investments Group Ltd.3,817$25K0.0%+110.4%0.005%
8/12/2025XTX Topco Ltd32,402$210K0.0%+9.7%0.043%
8/12/2025Rhumbline Advisers115,296$748K0.0%+6.3%0.152%
8/12/2025JPMorgan Chase & Co.48,487$315K0.0%+5.1%0.064%
8/12/2025Swiss National Bank115,100$747K0.0%+8.0%0.151%
8/12/2025Dynamic Technology Lab Private Ltd14,623$95K0.0%N/A0.019%
8/11/2025Persistent Asset Partners Ltd36,642$238K0.2%N/A0.048%
8/8/2025Intech Investment Management LLC37,686$245K0.0%-31.5%0.050%
8/8/2025Creative Planning66,097$429K0.0%+2.6%0.087%
8/8/2025Geode Capital Management LLC1,733,454$11.25M0.0%+4.0%2.294%
8/7/2025 Profund Advisors LLC13,707$89K0.0%-21.7%0.018%
8/5/2025Bank of Montreal Can11,919$77K0.0%-21.1%0.016%
8/4/2025 AdvisorShares Investments LLC109,593$711K0.1%-8.4%0.145%
8/1/2025 Teacher Retirement System of Texas16,260$106K0.0%+9.4%0.022%
7/31/2025Moloney Securities Asset Management LLC31,511$205K0.0%-12.5%0.042%
7/25/2025CWM LLC4,459$29K0.0%+67.4%0.006%
7/24/2025Blair William & Co. IL22,218$144K0.0%+77.7%0.029%
7/15/2025Palumbo Wealth Management LLC24,043$156K0.0%+6.3%0.032%
7/15/2025 North Star Investment Management Corp.6,701$43K0.0%-28.7%0.009%
7/9/2025 Bay Rivers Group11,618$75K0.0%N/A0.015%
6/27/2025Goldman Sachs Group Inc.192,195$1.12M0.0%-35.2%0.254%
6/18/2025Voya Investment Management LLC21,115$124K0.0%-10.8%0.028%
5/29/2025Rhumbline Advisers108,457$634K0.0%+7.7%0.144%
5/16/2025Goldman Sachs Group Inc.192,195$1.12M0.0%-35.2%0.255%
5/16/2025MIRAE ASSET GLOBAL ETFS HOLDINGS Ltd.43,550$255K0.0%-4.7%0.058%
5/16/2025AQR Capital Management LLC12,250$72K0.0%-51.3%0.016%
5/16/2025AWM Investment Company Inc.1,208,162$7.07M1.0%+1.3%1.603%


DFTX Institutional Ownership - Frequently Asked Questions

Who are the largest shareholders of DFTX shares?

During the previous two years, 138 institutional investors and hedge funds held shares of Definium Therapeutics. The most heavily invested institutionals were Commodore Capital LP ($38.02M), Marshall Wace LLP ($28.08M), Blackstone Inc. ($24.97M), Vanguard Group Inc. ($23.73M), Driehaus Capital Management LLC ($19.61M), Deep Track Capital LP ($17.69M), and Octagon Capital Advisors LP ($13.82M).Learn more on Definium Therapeutics' institutional investors.

What percentage of Definium Therapeutics' stock is owned by institutional investors?

27.91% of Definium Therapeutics' stock is owned by institutional investors. Learn more on DFTX's institutional investor holdings.

Which institutional investors have been buying Definium Therapeutics' stock?

Of the 119 institutional investors that purchased Definium Therapeutics' stock in the last 24 months, the following investors and hedge funds have bought the highest volume of shares: Blackstone Inc. ($1.25M), Marshall Wace LLP ($1.20M), AWM Investment Company Inc. ($1.20M), Janus Henderson Group PLC ($955.68K), Commodore Capital LP ($475K), Orbimed Advisors LLC ($367.82K), and Rosalind Advisors Inc. ($330K).

How much institutional buying is happening at Definium Therapeutics?

Institutional investors have bought a total of 4,603,332 shares in the last 24 months. This purchase volume represents approximately $41.36M in transactions.

Which of Definium Therapeutics' major shareholders have been selling company stock?

Of the 38 institutional investors that sold Definium Therapeutics' stock in the last 24 months, the following investors and hedge funds have sold the highest volume of shares: Commodore Capital LP ($1.78M), Marshall Wace LLP ($1.04M), Deep Track Capital LP ($1M), Octagon Capital Advisors LP ($888K), Ally Bridge Group NY LLC ($364.73K), Goldman Sachs Group Inc. ($209.22K), and Creative Planning ($54.19K).

How much institutional selling is happening at Definium Therapeutics?

Institutional investors have sold a total of 5,681,014 shares in the last 24 months. This volume of shares sold represents approximately $59.79M in transactions.



This page (NASDAQ:DFTX) was last updated on 5/5/2026 by MarketBeat.com Staff.
From Our Partners